Погода в Содоме

Россия / Кировская область     58°11′30″N   47°06′55″E
темп.,
°C
ветер,
м/с
пор.,
м/с
влажн.,
%
обл.,
%
осадки,
мм/ч
давл.,
гПа
погр.,
м
13 апреля, вт
вт1300:00+3ююв3797100 0.0 1038337
03:00+4юв31098100 0.0 1037365
06:00+4юв31098100 0.0 1035317
09:00+6ююв3897100 0.0 1034295
12:00+11ю4786100 0.0 1032470
15:00+15ююз4875100 0.0 1030650
18:00+11ю3990100 0.0 1029274
21:00+8ю3119369 0.0 1029213
14 апреля, ср
ср1400:00+6ююз3129089 0.0 1029223
03:00+5ююз288966 0.0 1029134
06:00+6ююз2686100 0.0 1028111
09:00+12ю366471 0.0 1027324
12:00+16ю464718 0.0 1026786
15:00+17ю47455 0.0 10241075
18:00+13ю24655 0.0 102367
21:00+9ю288068 0.0 1023134
15 апреля, чт
чт1500:00+7ююз23865 0.0 102251
03:00+6ююз22895 0.0 102232
06:00+6юз23875 0.0 102175
09:00+13юз24615 0.0 1020352
12:00+17юз234319 0.0 10191240
15:00+18зсз2237100 0.0 10181922
18:00+14с3657100 0.0 1018195
21:00+8ссв51081100 0.0 1020415
16 апреля, пт
пт1600:00+6ссв498499 0.0 1021476
03:00+5ссв4887100 0.1 1022549
06:00+4св4893100 0.0 1023569
09:00+6св466988 0.1 1023897
12:00+10ссв46415 0.0 10241445
15:00+10ссв46365 0.0 10241660
18:00+8ссв47430 0.0 1025838
21:00+3с29630 0.0 1026233
17 апреля, сб
сб1700:00+2ссз26680 0.0 1027121
03:00+1с411745 0.0 1027411
06:000с5117720 0.0 1029869
09:00+2с6115835 0.0 10301153
12:00+6ссв711331 0.0 10312021
15:00+6ссв610240 0.0 10322049
18:00+4ссв510300 0.0 10331582
21:00−1с26480 0.0 1035132